Flag Weather past 2 weeks in Compton, California, U.S.A.

Now
64 °F

Clear.


Feels Like: 64 °F
Forecast: 56 / 83 °F
Wind: No wind

Location: Hawthorne Municipal Airport

Current Time: Nov 26, 2014 at 9:43:56 PM

Latest Report: Nov 26, 2014 at 8:53 PM


Visibility: 10 mi

Pressure: 30.13 "Hg

Humidity: 58%

Dew point: 49 °F

Location of ComptonLocation

Historic Weather in Compton — Graph

°F

Compton temperature yesterday

Maximum temperature yesterday: 80 °F (at 1:53 PM)
Minimum temperature yesterday: 55 °F (at 2:53 AM)
Average temperature yesterday: 66 °F

Past Weeks' High & Low Weather Summary

 TemperatureHumidityPressure
High83 °F (Nov 26, 12:53 PM)90% (Nov 13, 10:53 PM)30.39 "Hg (Nov 13, 10:53 PM)
Low54 °F (Nov 26, 3:53 AM)6% (Nov 17, 12:53 PM)29.93 "Hg (Nov 21, 4:53 AM)
Average65 °F53%30.09 "Hg
* Reported Nov 11 7:53 PM — Nov 26 7:53 PM, Compton, Weather by CustomWeather, © 2014

Note: Actual official high and low records may vary slightly from our data, if they occured in-between our weather recording intervals... More about our weather records

Advertising

Compton weather history for previous 24 hours

 ConditionsComfort  
Time TempWeatherWind HumidityBarometerVisibility
7:53 PM
Nov 26
67 °FClear.No wind55%30.13 "Hg10 mi
6:53 PM68 °FClear.3 mph45%30.13 "Hg10 mi
5:53 PM70 °FClear.5 mph34%30.13 "Hg10 mi
4:53 PM72 °FClear.5 mph24%30.13 "Hg10 mi
3:53 PM77 °FSunny.7 mph15%30.12 "Hg10 mi
2:53 PM78 °FSunny.7 mph16%30.13 "Hg10 mi
1:53 PM80 °FSunny.9 mph13%30.14 "Hg10 mi
12:53 PM83 °FSunny.9 mph15%30.15 "Hg10 mi
11:53 AM82 °FSunny.No wind9%30.17 "Hg10 mi
10:53 AM79 °FSunny.3 mph12%30.21 "Hg10 mi
9:53 AM75 °FSunny.No wind15%30.23 "Hg10 mi
8:53 AM69 °FSunny.No wind18%30.23 "Hg10 mi
7:53 AM60 °FSunny.No wind31%30.23 "Hg10 mi
6:53 AM56 °FSunny.No wind34%30.22 "Hg10 mi
5:53 AM54 °FClear.No wind43%30.21 "Hg10 mi
4:53 AM54 °FClear.No wind45%30.21 "Hg10 mi
3:53 AM54 °FClear.No wind45%30.22 "Hg10 mi
2:53 AM55 °FClear.No wind44%30.23 "Hg10 mi
1:53 AM57 °FClear.No wind41%30.23 "Hg10 mi
12:53 AM58 °FClear.No wind47%30.24 "Hg10 mi
11:53 PM
Nov 25
59 °FClear.No wind64%30.26 "Hg10 mi
10:53 PM60 °FClear.No wind67%30.27 "Hg10 mi
9:53 PM62 °FClear.No wind65%30.28 "Hg10 mi
Weather by CustomWeather, © 2014

See weather overviewHow to use our weather pages